Home   Weather   Chania   Past weeks

Flag for Greece Past Weather in Chania, Crete, Greece — Yesterday and Last 2 Weeks

Now
63 °F

Passing clouds.


Feels Like: 63 °F
Forecast: 48 / 60 °F
Wind: 5 mph from Southeast

Location: Souda Airport

Current Time: Jan 18, 2017 at 2:20:57 pm

Latest Report: Jan 18, 2017 at 1:20 pm


Visibility: N/A

Pressure: 30.01 "Hg

Humidity: 64%

Dew Point: 50 °F

Location of ChaniaLocation

Past Weather in Chania — Graph

°F

Chania Temperature Yesterday

Maximum temperature yesterday: 59 °F (at 1:20 pm)
Minimum temperature yesterday: 46 °F (at 4:50 am)
Average temperature yesterday: 52 °F

High & Low Weather Summary for the Past Weeks

 TemperatureHumidityPressure
High63 °F (Jan 5, 10:50 am)100% (Jan 4, 8:50 am)30.18 "Hg (Jan 4, 8:50 am)
Low32 °F (Jan 8, 11:50 am)55% (Jan 14, 2:20 pm)29.62 "Hg (Jan 6, 1:50 pm)
Average48 °F84%29.91 "Hg
* Reported Jan 3 12:20 pm — Jan 18 12:50 pm, Chania, Weather by CustomWeather, © 2017

Note: Actual official high and low records may vary slightly from our data, if they occured in-between our weather recording intervals... More about our weather records

Advertising

Chania Weather History for the Previous 24 Hours

Scroll right to see more
 ConditionsComfort  
Time TempWeatherWind HumidityBarometerVisibility
12:50 pm
Wed, Jan 18
63 °FPassing clouds.6 mph64%30.01 "HgN/A
12:20 pm59 °FPassing clouds.No wind72%30.04 "HgN/A
11:50 am59 °FPassing clouds.No wind72%30.04 "HgN/A
11:20 am59 °FPassing clouds.No wind63%30.07 "HgN/A
10:50 am59 °FPassing clouds.No wind63%30.07 "HgN/A
10:20 am57 °FPassing clouds.No wind63%30.04 "HgN/A
9:50 am55 °FPassing clouds.No wind67%30.04 "HgN/A
9:20 am48 °FPassing clouds.No wind94%30.04 "HgN/A
8:50 am48 °FPassing clouds.No wind94%30.04 "HgN/A
8:20 am45 °FPassing clouds.No wind87%30.01 "HgN/A
7:50 am45 °FPassing clouds.No wind87%30.01 "HgN/A
7:20 am43 °FPassing clouds.No wind81%30.01 "HgN/A
6:50 am45 °FPassing clouds.No wind93%29.98 "HgN/A
5:50 am45 °FPassing clouds.No wind93%29.98 "HgN/A
5:20 am46 °FPassing clouds.No wind93%29.98 "HgN/A
4:50 am46 °FPassing clouds.No wind93%29.98 "HgN/A
4:20 am45 °FPassing clouds.No wind93%29.98 "HgN/A
3:50 am45 °FPassing clouds.No wind93%29.98 "HgN/A
3:20 am46 °FPassing clouds.No wind87%29.98 "HgN/A
2:50 am46 °FPassing clouds.No wind87%29.98 "HgN/A
1:50 am48 °FPassing clouds.5 mph87%29.95 "HgN/A
1:20 am48 °FPassing clouds.No wind82%29.95 "HgN/A
11:50 pm
Tue, Jan 17
46 °FPassing clouds.No wind93%29.95 "HgN/A
11:20 pm46 °FPassing clouds.No wind93%29.95 "HgN/A
10:50 pm46 °FPassing clouds.No wind93%29.95 "HgN/A
10:20 pm50 °FPassing clouds.No wind82%29.95 "HgN/A
9:50 pm50 °FPassing clouds.No wind82%29.95 "HgN/A
9:20 pm50 °FPassing clouds.No wind82%29.95 "HgN/A
8:50 pm48 °FPassing clouds.5 mph100%29.95 "HgN/A
8:20 pm52 °FPassing clouds.8 mph82%29.95 "HgN/A
7:50 pm52 °FPassing clouds.6 mph82%29.92 "HgN/A
7:20 pm52 °FPassing clouds.5 mph82%29.92 "HgN/A
6:50 pm52 °FPassing clouds.15 mph82%29.92 "HgN/A
6:20 pm54 °FPassing clouds.9 mph94%29.92 "HgN/A
5:50 pm54 °FPassing clouds.No wind94%29.89 "HgN/A
5:20 pm55 °FPartly sunny.5 mph77%29.89 "HgN/A
4:50 pm57 °FScattered clouds.6 mph77%29.86 "HgN/A
4:20 pm57 °FScattered clouds.7 mph77%29.86 "HgN/A
3:50 pm59 °FScattered clouds.No wind72%29.86 "HgN/A
3:20 pm59 °FScattered clouds.5 mph72%29.86 "HgN/A
2:50 pm59 °FScattered clouds.10 mph72%29.86 "HgN/A
Weather by CustomWeather, © 2017

See weather overviewHow to use our weather pages